WXM80 ListenWXM80 Stop

You find our weather info also at:

UK Metoffice

WeatherCloud

Weather Underground

Northeastern Weather Network

AWEKAS

Citizen Weather Observer Program (CWOP)

HAMweather, WeatherForYou, PWS Weather


Weather Underground History page Text

Daily Summary for November 2, 2017 Units:  English    Metric   Both
« Previous Day
Next Day »
Daily Weekly Monthly Yearly Custom
  High: Low: Average:
Temperature: 73.7 °F 51.1 °F 64.1 °F
Dew Point: 65.3 °F 48.3 °F 60.8 °F
Humidity: 98 % 71 % 89 %
Wind Speed: 5.3 mph 0.0 mph 1 mph
Wind Gust: 10.4 mph - -
Wind:- - South
Pressure: 30.32 in 29.96 in -
Precipitation: 0.05 in    
Historical Graphs
 
 
Tabular Data for November 2, 2017
Time Temperature Dew Point Pressure Wind Wind Speed Wind Gust Humidity Rainfall Rate (Hourly)
00:00 51.1 °F 48.3 °F 30.32 in SE 1.1 mph 3.5 mph 90 % 0.00 in
00:05 51.1 °F 48.6 °F 30.31 in SE 2.3 mph 3.5 mph 91 % 0.00 in
00:10 51.2 °F 48.7 °F 30.31 in SE 1.2 mph 3.5 mph 91 % 0.00 in
00:15 51.5 °F 49.3 °F 30.32 in SE 1.5 mph 3.5 mph 92 % 0.00 in
00:20 52.0 °F 50.3 °F 30.32 in Calm   1.2 mph 94 % 0.00 in
00:25 52.4 °F 51.0 °F 30.32 in SE 0.2 mph 1.2 mph 95 % 0.00 in
00:30 52.7 °F 51.3 °F 30.32 in SE 1.0 mph 2.3 mph 95 % 0.00 in
00:35 53.1 °F 51.7 °F 30.32 in SE 0.4 mph 1.2 mph 95 % 0.00 in
00:40 53.3 °F 51.9 °F 30.32 in Calm   1.0 mph 95 % 0.00 in
00:45 53.5 °F 52.4 °F 30.32 in SE 0.3 mph 1.2 mph 96 % 0.00 in
00:50 53.7 °F 52.6 °F 30.32 in SE 0.5 mph 1.2 mph 96 % 0.00 in
00:55 53.9 °F 52.8 °F 30.32 in Calm     96 % 0.00 in
01:00 54.1 °F 53.0 °F 30.32 in Calm     96 % 0.00 in
01:05 54.2 °F 53.1 °F 30.31 in Calm     96 % 0.00 in
01:10 54.3 °F 53.2 °F 30.32 in Calm     96 % 0.00 in
01:15 54.5 °F 53.4 °F 30.31 in Calm     96 % 0.00 in
01:20 54.5 °F 53.4 °F 30.31 in Calm     96 % 0.00 in
01:25 54.6 °F 53.5 °F 30.31 in Calm     96 % 0.00 in
01:30 54.6 °F 53.5 °F 30.31 in Calm   2.3 mph 96 % 0.00 in
01:36 54.7 °F 53.6 °F 30.31 in Calm   2.0 mph 96 % 0.00 in
01:41 54.8 °F 53.7 °F 30.31 in SE 1.0 mph 4.0 mph 96 % 0.00 in
01:46 55.0 °F 54.2 °F 30.31 in SE 2.0 mph 4.0 mph 97 % 0.00 in
01:51 55.5 °F 54.6 °F 30.31 in SE 2.0 mph 6.0 mph 97 % 0.00 in
01:56 56.1 °F 55.3 °F 30.31 in Calm   3.0 mph 97 % 0.00 in
02:01 56.8 °F 56.0 °F 30.31 in SE 1.3 mph 4.0 mph 97 % 0.00 in
02:06 57.3 °F 56.5 °F 30.31 in Calm   1.2 mph 97 % 0.00 in
02:11 57.7 °F 56.9 °F 30.31 in SSE 1.5 mph 3.5 mph 97 % 0.00 in
02:16 58.3 °F 57.7 °F 30.31 in SSE 2.3 mph 3.5 mph 98 % 0.00 in
02:21 58.6 °F 57.8 °F 30.31 in SSE 0.8 mph 2.3 mph 97 % 0.00 in
02:26 58.8 °F 58.0 °F 30.31 in SSE 1.0 mph 2.3 mph 97 % 0.00 in
02:31 58.9 °F 58.3 °F 30.31 in SSE 1.3 mph 3.5 mph 98 % 0.00 in
02:36 59.1 °F 58.5 °F 30.32 in SSE 0.2 mph 2.3 mph 98 % 0.00 in
02:41 59.1 °F 58.2 °F 30.31 in Calm     97 % 0.00 in
02:46 59.1 °F 58.2 °F 30.30 in Calm     97 % 0.00 in
02:51 59.2 °F 58.3 °F 30.31 in SSE 0.9 mph 2.3 mph 97 % 0.00 in
02:52 59.2 °F 58.3 °F 30.31 in SSE 0.8 mph 3.5 mph 97 % 0.00 in
02:57 59.2 °F 58.3 °F 30.31 in SE 2.5 mph 4.0 mph 97 % 0.00 in
03:02 59.4 °F 58.5 °F 30.31 in SE 0.7 mph 4.6 mph 97 % 0.00 in
03:07 59.5 °F 58.6 °F 30.29 in SE 0.4 mph 2.3 mph 97 % 0.00 in
03:12 59.7 °F 59.1 °F 30.29 in SE 0.2 mph 1.0 mph 98 % 0.00 in
03:15 59.7 °F 59.1 °F 30.29 in SE 0.9 mph 2.3 mph 98 % 0.00 in
03:20 59.9 °F 59.3 °F 30.29 in SE 2.5 mph 4.6 mph 98 % 0.00 in
03:25 60.2 °F 59.6 °F 30.28 in Calm   8.1 mph 98 % 0.00 in
03:30 60.2 °F 59.6 °F 30.30 in West 2.4 mph 5.8 mph 98 % 0.00 in
03:35 60.3 °F 59.7 °F 30.30 in SSW 1.0 mph 3.5 mph 98 % 0.00 in
03:40 60.3 °F 59.4 °F 30.29 in Calm   3.5 mph 97 % 0.00 in
03:45 60.4 °F 59.5 °F 30.30 in SE 1.5 mph 3.5 mph 97 % 0.00 in
03:50 60.4 °F 59.5 °F 30.30 in Calm     97 % 0.00 in
03:55 60.4 °F 59.5 °F 30.30 in Calm   1.2 mph 97 % 0.00 in
04:00 60.5 °F 59.6 °F 30.30 in SSE 0.7 mph 1.2 mph 97 % 0.00 in
04:05 60.5 °F 59.6 °F 30.29 in Calm   1.0 mph 97 % 0.00 in
04:10 60.5 °F 59.6 °F 30.30 in SE 0.4 mph 1.2 mph 97 % 0.00 in
04:15 60.6 °F 59.7 °F 30.30 in SE 0.1 mph 2.3 mph 97 % 0.00 in
04:18 60.6 °F 59.7 °F 30.29 in SE 0.6 mph 5.0 mph 97 % 0.00 in
04:23 60.7 °F 59.8 °F 30.29 in SSE 3.1 mph 6.9 mph 97 % 0.00 in
04:28 60.9 °F 60.0 °F 30.29 in SSE 1.0 mph 3.0 mph 97 % 0.00 in
04:33 61.0 °F 60.1 °F 30.29 in SE 1.9 mph 9.0 mph 97 % 0.00 in
04:38 61.1 °F 60.2 °F 30.29 in SE 0.5 mph 2.3 mph 97 % 0.00 in
04:43 61.2 °F 60.3 °F 30.29 in SSE 3.7 mph 5.0 mph 97 % 0.00 in
04:48 61.3 °F 60.4 °F 30.29 in SE 2.1 mph 3.5 mph 97 % 0.00 in
04:53 61.3 °F 60.4 °F 30.29 in Calm   1.2 mph 97 % 0.00 in
04:58 61.3 °F 60.4 °F 30.29 in SSE 0.4 mph 2.3 mph 97 % 0.00 in
05:03 61.3 °F 60.4 °F 30.30 in South 2.0 mph 5.8 mph 97 % 0.00 in
05:08 61.4 °F 60.5 °F 30.30 in SSE 0.7 mph 3.5 mph 97 % 0.00 in
05:13 61.5 °F 60.3 °F 30.29 in SSE 0.3 mph 1.2 mph 96 % 0.00 in
05:18 61.6 °F 60.7 °F 30.29 in South 1.0 mph 3.5 mph 97 % 0.00 in
05:23 61.7 °F 60.5 °F 30.29 in Calm     96 % 0.00 in
05:28 61.7 °F 60.5 °F 30.29 in SE 1.0 mph 3.5 mph 96 % 0.00 in
05:33 61.7 °F 60.5 °F 30.29 in SSW 0.6 mph 2.0 mph 96 % 0.00 in
05:38 61.7 °F 60.5 °F 30.29 in Calm   1.2 mph 96 % 0.00 in
05:43 61.7 °F 60.5 °F 30.29 in SSE 0.3 mph 2.0 mph 96 % 0.00 in
05:48 61.7 °F 60.5 °F 30.30 in SE 0.3 mph 2.3 mph 96 % 0.00 in
05:53 61.6 °F 60.4 °F 30.30 in Calm     96 % 0.00 in
05:58 61.6 °F 60.4 °F 30.29 in SSW 0.2 mph 2.3 mph 96 % 0.00 in
06:04 61.6 °F 60.4 °F 30.29 in Calm     96 % 0.00 in
06:09 61.5 °F 60.3 °F 30.30 in Calm     96 % 0.00 in
06:14 61.5 °F 60.3 °F 30.30 in Calm   1.0 mph 96 % 0.00 in
06:19 61.4 °F 60.2 °F 30.30 in Calm   1.2 mph 96 % 0.00 in
06:24 61.4 °F 60.2 °F 30.29 in Calm     96 % 0.00 in
06:29 61.3 °F 60.2 °F 30.30 in SSW 0.2 mph 1.2 mph 96 % 0.00 in
06:34 61.3 °F 60.2 °F 30.30 in Calm     96 % 0.00 in
06:39 61.2 °F 60.1 °F 30.30 in Calm     96 % 0.00 in
06:44 61.2 °F 60.1 °F 30.30 in Calm     96 % 0.00 in
06:49 61.1 °F 60.0 °F 30.29 in Calm     96 % 0.00 in
06:54 61.1 °F 60.0 °F 30.29 in Calm     96 % 0.00 in
06:59 61.0 °F 59.9 °F 30.29 in Calm     96 % 0.00 in
07:04 61.0 °F 59.9 °F 30.30 in Calm   1.2 mph 96 % 0.00 in
07:09 61.0 °F 59.9 °F 30.30 in Calm     96 % 0.00 in
07:14 61.0 °F 59.9 °F 30.30 in Calm   1.2 mph 96 % 0.00 in
07:19 61.0 °F 59.9 °F 30.30 in Calm   1.2 mph 96 % 0.00 in
07:24 60.9 °F 59.8 °F 30.30 in Calm     96 % 0.00 in
07:29 60.9 °F 59.8 °F 30.30 in Calm     96 % 0.00 in
07:34 60.9 °F 59.8 °F 30.30 in Calm     96 % 0.00 in
07:39 60.8 °F 59.7 °F 30.30 in Calm     96 % 0.00 in
07:44 60.8 °F 59.7 °F 30.30 in Calm     96 % 0.00 in
07:49 60.8 °F 59.7 °F 30.30 in Calm     96 % 0.00 in
07:54 60.8 °F 59.7 °F 30.30 in Calm     96 % 0.00 in
07:59 60.7 °F 59.6 °F 30.30 in Calm   1.2 mph 96 % 0.00 in
08:04 60.7 °F 59.6 °F 30.30 in Calm     96 % 0.00 in
08:09 60.7 °F 59.6 °F 30.30 in Calm     96 % 0.00 in
08:14 60.8 °F 59.7 °F 30.30 in Calm     96 % 0.00 in
08:19 60.9 °F 59.8 °F 30.30 in Calm     96 % 0.00 in
08:24 61.0 °F 60.1 °F 30.30 in Calm     97 % 0.00 in
08:27 61.1 °F 60.2 °F 30.30 in SSW 0.4 mph 2.3 mph 97 % 0.00 in
08:32 61.2 °F 60.3 °F 30.30 in SSE 0.5 mph 1.2 mph 97 % 0.00 in
08:37 61.4 °F 60.5 °F 30.30 in Calm   1.2 mph 97 % 0.00 in
08:42 61.6 °F 60.7 °F 30.30 in South 0.4 mph 2.3 mph 97 % 0.00 in
08:44 61.6 °F 60.7 °F 30.31 in SSE 0.5 mph 2.3 mph 97 % 0.00 in
08:49 61.8 °F 60.9 °F 30.31 in SSE 1.6 mph 3.5 mph 97 % 0.00 in
08:54 62.1 °F 61.2 °F 30.30 in SSE 0.1 mph 1.2 mph 97 % 0.00 in
08:59 62.3 °F 61.4 °F 30.30 in South 0.6 mph 2.3 mph 97 % 0.00 in
09:04 62.5 °F 61.6 °F 30.31 in South 0.8 mph 4.6 mph 97 % 0.00 in
09:09 62.7 °F 61.8 °F 30.30 in South 0.9 mph 3.5 mph 97 % 0.00 in
09:14 62.8 °F 61.9 °F 30.31 in SSW 0.9 mph 5.8 mph 97 % 0.00 in
09:19 63.0 °F 62.1 °F 30.31 in SSW 1.2 mph 3.5 mph 97 % 0.00 in
09:24 63.1 °F 62.2 °F 30.31 in SSW 1.7 mph 3.5 mph 97 % 0.00 in
09:29 63.3 °F 62.4 °F 30.31 in South 1.3 mph 3.5 mph 97 % 0.00 in
09:34 63.4 °F 62.5 °F 30.31 in SE 0.7 mph 3.5 mph 97 % 0.00 in
09:39 63.5 °F 62.6 °F 30.31 in West 0.5 mph 2.3 mph 97 % 0.00 in
09:44 63.7 °F 62.8 °F 30.32 in SSW 1.4 mph 3.5 mph 97 % 0.00 in
09:49 63.8 °F 62.9 °F 30.32 in South 0.2 mph 2.3 mph 97 % 0.00 in
09:54 64.0 °F 63.1 °F 30.32 in South 0.7 mph 3.0 mph 97 % 0.00 in
09:59 64.2 °F 63.3 °F 30.32 in Calm   3.5 mph 97 % 0.00 in
10:04 64.4 °F 63.5 °F 30.32 in SSE 1.6 mph 3.5 mph 97 % 0.00 in
10:09 64.6 °F 63.7 °F 30.32 in SW 0.2 mph 1.2 mph 97 % 0.00 in
10:14 64.8 °F 63.9 °F 30.32 in SW 2.1 mph 4.0 mph 97 % 0.00 in
10:19 65.0 °F 63.8 °F 30.32 in SW 2.3 mph 3.5 mph 96 % 0.00 in
10:24 65.2 °F 64.0 °F 30.32 in SSW 1.1 mph 2.3 mph 96 % 0.00 in
10:29 65.4 °F 64.2 °F 30.32 in East 0.1 mph 1.2 mph 96 % 0.00 in
10:34 65.7 °F 64.5 °F 30.32 in Calm   2.0 mph 96 % 0.00 in
10:39 65.9 °F 64.4 °F 30.32 in WSW 1.6 mph 3.5 mph 95 % 0.00 in
10:44 66.2 °F 64.4 °F 30.31 in WSW 0.2 mph   94 % 0.00 in
10:50 66.7 °F 64.9 °F 30.32 in WSW 0.8 mph 3.5 mph 94 % 0.00 in
10:55 67.2 °F 65.1 °F 30.32 in SSW 3.2 mph 6.9 mph 93 % 0.00 in
11:00 67.7 °F 65.0 °F 30.31 in WSW 2.4 mph 5.8 mph 91 % 0.00 in
11:05 68.1 °F 64.7 °F 30.32 in SW 2.9 mph 4.6 mph 89 % 0.00 in
11:10 68.5 °F 64.8 °F 30.31 in SW 1.5 mph 4.0 mph 88 % 0.00 in
11:15 69.0 °F 65.3 °F 30.32 in WNW 2.0 mph 5.0 mph 88 % 0.00 in
11:20 69.5 °F 65.1 °F 30.31 in SSW 2.6 mph 5.8 mph 86 % 0.00 in
11:25 69.8 °F 64.7 °F 30.32 in WSW 4.4 mph 6.9 mph 84 % 0.00 in
11:30 70.1 °F 65.0 °F 30.32 in WSW 1.0 mph 6.9 mph 84 % 0.00 in
11:35 70.2 °F 64.8 °F 30.32 in WNW 0.2 mph 3.5 mph 83 % 0.00 in
11:40 70.2 °F 64.4 °F 30.32 in West 2.4 mph 4.0 mph 82 % 0.00 in
11:45 70.2 °F 64.4 °F 30.32 in SW 0.9 mph 3.5 mph 82 % 0.00 in
11:50 70.1 °F 64.3 °F 30.31 in WNW 3.1 mph 6.0 mph 82 % 0.01 in
11:55 69.9 °F 64.2 °F 30.32 in WNW 1.6 mph 3.5 mph 82 % 0.01 in
12:00 69.7 °F 64.3 °F 30.31 in WNW 1.7 mph 3.0 mph 83 % 0.01 in
12:05 69.5 °F 64.1 °F 30.31 in WNW 0.6 mph 2.3 mph 83 % 0.01 in
12:10 69.2 °F 64.2 °F 30.31 in Calm   2.3 mph 84 % 0.01 in
12:15 69.1 °F 64.1 °F 30.30 in Calm   2.3 mph 84 % 0.01 in
12:21 68.9 °F 64.5 °F 30.30 in Calm     86 % 0.01 in
12:26 68.9 °F 64.9 °F 30.30 in Calm   3.0 mph 87 % 0.00 in
12:31 69.0 °F 64.6 °F 30.29 in WSW 3.0 mph 5.0 mph 86 % 0.00 in
12:36 69.1 °F 64.4 °F 30.29 in South 2.0 mph 7.0 mph 85 % 0.00 in
12:41 69.5 °F 64.4 °F 30.27 in South 1.0 mph 7.0 mph 84 % 0.00 in
12:42 69.6 °F 64.5 °F 30.28 in SSW 2.4 mph 3.5 mph 84 % 0.01 in
12:47 69.9 °F 64.2 °F 30.28 in SE 1.5 mph 9.2 mph 82 % 0.01 in
12:52 70.1 °F 64.0 °F 30.28 in SSE 2.9 mph 10.4 mph 81 % 0.00 in
12:57 70.3 °F 64.2 °F 30.28 in SSE 3.2 mph 10.0 mph 81 % 0.00 in
13:02 70.3 °F 63.8 °F 30.28 in SSW 4.2 mph 6.9 mph 80 % 0.00 in
13:08 70.4 °F 63.9 °F 30.27 in SSW 5.2 mph 8.1 mph 80 % 0.00 in
13:13 70.5 °F 64.0 °F 30.27 in SSW 1.9 mph 6.9 mph 80 % 0.00 in
13:18 70.6 °F 64.1 °F 30.27 in SSW 0.7 mph 3.5 mph 80 % 0.00 in
13:23 70.6 °F 63.8 °F 30.27 in SSE 1.9 mph 6.0 mph 79 % 0.00 in
13:28 70.7 °F 63.5 °F 30.27 in SE 1.2 mph 3.5 mph 78 % 0.00 in
13:33 70.8 °F 64.0 °F 30.27 in SSW 2.8 mph 6.9 mph 79 % 0.00 in
13:38 70.9 °F 63.7 °F 30.27 in SSW 1.4 mph 3.5 mph 78 % 0.00 in
13:43 71.1 °F 63.5 °F 30.25 in SE 1.5 mph 5.0 mph 77 % 0.00 in
13:44 71.2 °F 63.6 °F 30.25 in SSE 2.5 mph 4.6 mph 77 % 0.00 in
13:49 71.4 °F 63.4 °F 30.26 in SSW 1.9 mph 5.0 mph 76 % 0.00 in
13:54 71.7 °F 63.7 °F 30.26 in SSW 3.4 mph 5.8 mph 76 % 0.00 in
13:59 72.2 °F 64.2 °F 30.26 in SSW 2.8 mph 5.0 mph 76 % 0.00 in
14:04 72.6 °F 64.2 °F 30.25 in SSW 4.3 mph 6.9 mph 75 % 0.00 in
14:09 73.0 °F 64.2 °F 30.26 in South 1.9 mph 6.9 mph 74 % 0.00 in
14:14 73.3 °F 63.7 °F 30.26 in SSW 1.8 mph 6.9 mph 72 % 0.00 in
14:19 73.5 °F 63.9 °F 30.26 in SSW 3.8 mph 8.1 mph 72 % 0.00 in
14:24 73.4 °F 63.8 °F 30.26 in SSW 1.6 mph 3.5 mph 72 % 0.00 in
14:29 73.4 °F 64.2 °F 30.26 in WSW 5.2 mph 7.0 mph 73 % 0.00 in
14:34 73.5 °F 64.3 °F 30.26 in SW 4.4 mph 6.0 mph 73 % 0.00 in
14:39 73.6 °F 64.0 °F 30.25 in SW 2.6 mph 5.8 mph 72 % 0.00 in
14:44 73.7 °F 64.1 °F 30.25 in SSW 2.7 mph 6.0 mph 72 % 0.00 in
14:49 73.7 °F 63.7 °F 30.25 in South 3.9 mph 7.0 mph 71 % 0.00 in
14:54 73.6 °F 63.6 °F 30.24 in SE 2.1 mph 6.9 mph 71 % 0.00 in
14:59 73.5 °F 63.9 °F 30.25 in South 2.0 mph 3.5 mph 72 % 0.00 in
15:04 73.5 °F 63.5 °F 30.25 in SSW 3.3 mph 7.0 mph 71 % 0.00 in
15:09 73.3 °F 63.3 °F 30.25 in SSW 3.6 mph 5.0 mph 71 % 0.00 in
15:14 73.2 °F 63.6 °F 30.25 in SW 3.7 mph 7.0 mph 72 % 0.00 in
15:19 73.0 °F 63.4 °F 30.25 in SW 2.6 mph 5.8 mph 72 % 0.00 in
15:24 72.8 °F 63.2 °F 30.25 in South 0.8 mph 2.3 mph 72 % 0.00 in
15:29 72.7 °F 63.1 °F 30.25 in SSW 4.8 mph 8.1 mph 72 % 0.00 in
15:34 72.5 °F 63.4 °F 30.25 in SSE 3.0 mph 4.6 mph 73 % 0.00 in
15:39 72.2 °F 62.7 °F 30.25 in South 3.3 mph 6.9 mph 72 % 0.00 in
15:44 72.0 °F 62.9 °F 30.25 in South 1.5 mph 3.5 mph 73 % 0.00 in
15:49 71.8 °F 63.1 °F 30.25 in SSW 2.1 mph 7.0 mph 74 % 0.00 in
15:54 71.6 °F 62.5 °F 30.25 in South 1.8 mph 3.5 mph 73 % 0.00 in
16:00 71.5 °F 62.4 °F 30.24 in SSE 0.8 mph 2.3 mph 73 % 0.00 in
16:05 71.3 °F 62.2 °F 30.24 in SE 2.0 mph 6.9 mph 73 % 0.00 in
16:10 71.2 °F 62.1 °F 30.24 in SSW 1.7 mph 5.8 mph 73 % 0.00 in
16:15 71.1 °F 62.4 °F 30.24 in WSW 0.7 mph 4.6 mph 74 % 0.00 in
16:20 71.0 °F 62.3 °F 30.24 in Calm   1.0 mph 74 % 0.00 in
16:25 71.0 °F 62.3 °F 30.24 in SE 0.2 mph 2.3 mph 74 % 0.00 in
16:30 70.9 °F 62.6 °F 30.24 in SSE 0.9 mph 3.5 mph 75 % 0.00 in
16:35 70.8 °F 62.1 °F 30.24 in SE 1.4 mph 4.0 mph 74 % 0.00 in
16:40 70.6 °F 61.9 °F 30.24 in South 3.4 mph 5.0 mph 74 % 0.00 in
16:45 70.5 °F 61.8 °F 30.24 in South 0.8 mph 2.3 mph 74 % 0.00 in
16:50 70.4 °F 61.7 °F 30.24 in SSW 0.1 mph 2.3 mph 74 % 0.00 in
16:55 70.4 °F 62.1 °F 30.24 in SSE 5.3 mph 9.2 mph 75 % 0.00 in
17:00 70.3 °F 62.0 °F 30.24 in SSE 1.4 mph 3.5 mph 75 % 0.00 in
17:05 70.2 °F 61.9 °F 30.23 in SSW 0.9 mph 3.5 mph 75 % 0.00 in
17:10 70.1 °F 61.8 °F 30.23 in South 0.9 mph 3.5 mph 75 % 0.00 in
17:15 69.9 °F 62.0 °F 30.24 in South 0.6 mph 3.5 mph 76 % 0.00 in
17:20 69.8 °F 61.9 °F 30.24 in SSW 1.0 mph 3.5 mph 76 % 0.00 in
17:26 69.6 °F 61.7 °F 30.24 in Calm   2.0 mph 76 % 0.00 in
17:31 69.4 °F 61.5 °F 30.24 in Calm   5.0 mph 76 % 0.00 in
17:36 69.2 °F 61.7 °F 30.24 in Calm   6.0 mph 77 % 0.00 in
17:41 68.9 °F 61.4 °F 30.24 in Calm   6.0 mph 77 % 0.00 in
17:46 68.6 °F 61.5 °F 30.24 in SSE 1.0 mph 5.0 mph 78 % 0.00 in
17:51 68.5 °F 61.3 °F 30.24 in Calm   3.0 mph 78 % 0.00 in
17:56 68.3 °F 61.2 °F 30.24 in SSE 1.0 mph 5.0 mph 78 % 0.00 in
18:01 68.0 °F 61.2 °F 30.24 in SSE 1.4 mph 3.5 mph 79 % 0.00 in
18:06 67.7 °F 61.3 °F 30.24 in SE 1.2 mph 4.6 mph 80 % 0.00 in
18:11 67.4 °F 61.4 °F 30.24 in SE 0.3 mph 2.3 mph 81 % 0.00 in
18:16 67.1 °F 61.1 °F 30.24 in SE 2.0 mph 4.6 mph 81 % 0.00 in
18:21 66.9 °F 61.2 °F 30.24 in ESE 1.9 mph 6.9 mph 82 % 0.00 in
18:26 66.6 °F 61.3 °F 30.24 in SSE 0.6 mph 2.3 mph 83 % 0.00 in
18:31 66.4 °F 61.1 °F 30.24 in SSE 2.0 mph 4.6 mph 83 % 0.00 in
18:36 66.2 °F 61.2 °F 30.24 in SSE 1.3 mph 3.5 mph 84 % 0.00 in
18:41 66.0 °F 61.0 °F 30.24 in SSE 1.1 mph 3.5 mph 84 % 0.00 in
18:46 65.8 °F 61.2 °F 30.25 in SSE 1.0 mph 3.5 mph 85 % 0.00 in
18:51 65.7 °F 61.1 °F 30.23 in SE 0.1 mph 1.2 mph 85 % 0.00 in
18:56 65.5 °F 61.2 °F 30.23 in SSE 0.1 mph 6.9 mph 86 % 0.00 in
19:01 65.3 °F 61.0 °F 30.24 in Calm   1.2 mph 86 % 0.00 in
19:06 65.2 °F 61.2 °F 30.24 in South 0.3 mph 3.5 mph 87 % 0.00 in
19:11 65.0 °F 61.0 °F 30.24 in SSW 0.2 mph 4.6 mph 87 % 0.00 in
19:16 64.9 °F 60.9 °F 30.24 in SE 1.6 mph 3.0 mph 87 % 0.00 in
19:21 64.8 °F 61.2 °F 30.24 in South 0.2 mph 1.2 mph 88 % 0.00 in
19:26 64.7 °F 61.1 °F 30.24 in SSW 0.6 mph 3.5 mph 88 % 0.00 in
19:31 64.6 °F 61.0 °F 30.23 in SSW 0.4 mph 3.0 mph 88 % 0.00 in
19:37 64.5 °F 60.9 °F 30.24 in SSW 0.3 mph 3.5 mph 88 % 0.00 in
19:42 64.4 °F 61.1 °F 30.24 in South 0.4 mph 1.2 mph 89 % 0.00 in
19:47 64.3 °F 61.0 °F 30.24 in SW 0.7 mph 2.3 mph 89 % 0.00 in
19:52 64.2 °F 60.9 °F 30.23 in SW 0.3 mph 2.3 mph 89 % 0.00 in
19:57 64.1 °F 61.1 °F 30.24 in SSW 0.8 mph 3.5 mph 90 % 0.00 in
20:02 64.0 °F 61.0 °F 30.24 in SSW 0.4 mph 2.0 mph 90 % 0.00 in
20:07 63.9 °F 60.9 °F 30.23 in SSW 0.1 mph 1.2 mph 90 % 0.00 in
20:12 63.9 °F 60.9 °F 30.22 in SSW 0.4 mph 2.3 mph 90 % 0.00 in
20:17 63.8 °F 60.8 °F 30.23 in SSW 0.5 mph 2.3 mph 90 % 0.00 in
20:22 63.7 °F 61.0 °F 30.23 in South 0.8 mph 3.5 mph 91 % 0.00 in
20:27 63.6 °F 60.9 °F 30.23 in South 0.6 mph 3.5 mph 91 % 0.00 in
20:32 63.5 °F 60.8 °F 30.23 in South 0.7 mph 3.5 mph 91 % 0.00 in
20:37 63.5 °F 60.8 °F 30.22 in SSE 0.4 mph 2.0 mph 91 % 0.00 in
20:42 63.4 °F 61.0 °F 30.21 in SSE 0.3 mph 2.3 mph 92 % 0.00 in
20:47 63.4 °F 61.0 °F 30.21 in South 0.9 mph 2.3 mph 92 % 0.00 in
20:52 63.3 °F 60.9 °F 30.21 in South 0.9 mph 3.5 mph 92 % 0.00 in
20:57 63.3 °F 60.9 °F 30.22 in SSW 0.2 mph 2.3 mph 92 % 0.00 in
21:02 63.2 °F 61.1 °F 30.23 in SSW 0.5 mph 3.5 mph 93 % 0.00 in
21:07 63.2 °F 61.1 °F 30.23 in South 0.4 mph 3.0 mph 93 % 0.00 in
21:13 63.1 °F 61.0 °F 30.23 in SE 0.1 mph 2.3 mph 93 % 0.00 in
21:18 63.1 °F 61.0 °F 30.23 in South 0.8 mph 3.5 mph 93 % 0.00 in
21:23 63.0 °F 60.9 °F 30.23 in SSW 1.6 mph 3.5 mph 93 % 0.00 in
21:28 63.0 °F 60.9 °F 30.23 in SSW 0.9 mph 2.3 mph 93 % 0.00 in
21:33 62.9 °F 60.8 °F 30.22 in SSW 0.5 mph 2.3 mph 93 % 0.01 in
21:38 62.9 °F 60.8 °F 30.23 in SSW 0.1 mph 1.2 mph 93 % 0.01 in
21:43 62.8 °F 60.7 °F 30.23 in SSW 0.2 mph 1.2 mph 93 % 0.01 in
21:48 62.7 °F 60.6 °F 30.24 in Calm     93 % 0.01 in
21:53 62.7 °F 60.6 °F 30.24 in Calm   1.2 mph 93 % 0.01 in
21:58 62.6 °F 60.5 °F 30.24 in SSW 0.1 mph 2.3 mph 93 % 0.01 in
22:03 62.6 °F 60.5 °F 30.22 in Calm     93 % 0.01 in
22:08 62.6 °F 60.8 °F 30.22 in SSW 0.1 mph 1.2 mph 94 % 0.01 in
22:13 62.6 °F 60.8 °F 30.23 in SSW 0.1 mph 1.0 mph 94 % 0.01 in
22:18 62.5 °F 60.7 °F 30.23 in SSW 0.1 mph 1.2 mph 94 % 0.01 in
22:23 62.5 °F 60.7 °F 30.23 in SSW 0.2 mph 1.2 mph 94 % 0.02 in
22:28 62.5 °F 60.7 °F 30.22 in SSW 0.3 mph 1.2 mph 94 % 0.02 in
22:33 62.5 °F 60.7 °F 30.21 in Calm   1.0 mph 94 % 0.01 in
22:38 62.5 °F 60.7 °F 30.22 in SSW 0.2 mph 1.2 mph 94 % 0.01 in
22:43 62.5 °F 61.0 °F 30.21 in Calm   1.2 mph 95 % 0.01 in
22:48 62.5 °F 61.0 °F 30.21 in Calm   1.0 mph 95 % 0.01 in
22:53 62.5 °F 61.0 °F 30.21 in Calm     95 % 0.01 in
22:58 62.5 °F 61.0 °F 30.21 in SSW 0.2 mph 2.3 mph 95 % 0.01 in
23:03 62.5 °F 61.0 °F 30.21 in Calm     95 % 0.01 in
23:08 62.5 °F 61.0 °F 30.21 in SSW 0.1 mph 1.2 mph 95 % 0.02 in
23:14 62.5 °F 61.0 °F 30.22 in Calm     95 % 0.02 in
23:19 62.4 °F 60.9 °F 30.22 in Calm     95 % 0.02 in
23:25 62.4 °F 60.9 °F 29.96 in Calm     95 % 0.01 in
23:33 62.3 °F 60.8 °F 30.20 in Calm     95 % 0.01 in
23:36 62.3 °F 60.8 °F 30.20 in Calm     95 % 0.01 in
23:41 62.2 °F 60.8 °F 30.20 in Calm   1.2 mph 95 % 0.01 in
23:46 62.2 °F 60.8 °F 30.20 in WSW 0.6 mph 2.3 mph 95 % 0.02 in
23:51 62.2 °F 60.8 °F 30.21 in WSW 0.2 mph 1.2 mph 95 % 0.02 in
23:56 62.2 °F 60.8 °F 30.20 in WSW 0.4 mph 2.3 mph 95 % 0.02 in
Crab Meadow Weather
Compliments of Weather Underground - 3 mb

Script developed by  Jim McMurry - jmcmurry@mwt.net Adapted for the template by  Wim van der Kuil - Leuven-Template.eu

Temperature: You can tell the temperature by counting the clicks a cricket makes in 15 seconds and adding 37!